Location: Caseificio
(44.7500°N, 11.0500°E)
Time: 00:18:32
(UTC+00:00)

Cosmos 407 Rocket - Pass Details

Date: 26 May 2022
Orbit: 743 x 786 km, 74.0° (Epoch: 26 June)

Event Time Altitude Azimuth Distance (km) Brightness Sun altitude
Rises 02:45:40 0° 335° (NNW) 3,280 7.0 -8.2°
Reaches altitude 10° 02:48:06 10° 333° (NNW) 2,343 6.2 -7.9°
Maximum altitude 02:53:20 62° 254° (WSW) 875 3.6 -7.2°
Drops below altitude 10° 02:58:30 10° 174° (S) 2,302 5.7 -6.5°
Sets 03:00:52 0° 171° (S) 3,217 6.4 -6.2°
